Notices

What's New in latest Release from April 7th, 2021:

- Updated Glossary, including Speed of Maximum Gust, and Total Hourly Precipitation

- Updated national and regional climate services offices contacts and prices information

- Addition of station inventory lists for 1981-2010, 1971-2000, and 1961-1990 Normals.

If you haven't already, please take our survey and provide feedback about our website: https://eccc.sondage-survey.ca/f/LanguageSelection.aspx?s=442ca660-fcf1-47c0-95a9-59707d6fd709

Hourly Data Report for December 17, 2019

CARBERRY CS
MANITOBA
Current Station Operator: ECCC - MSC

49°54'20.900" N
99°21'26.800" W
383.50 m
5010547
71170
WZE

Download Data

Hourly Data (December 2019)
Hourly Data Report for December 17, 2019
TIME
LST
Temp Definition
°C
Dew Point Definition
°C
Rel Hum Definition
%
Precip. Amount Definition
mm

Wind Dir Definition
10's deg

Wind Spd Definition
km/h
Visibility Definition
km
Stn Press Definition
kPa
Hmdx Definition


Wind Chill Definition


Weather Definition


00:00 -16.5 -18.4 86 0.0 3 6   97.19   -21 LegendNANA
01:00 -18.4 -19.8 89 0.0 29 5   97.26   -22 LegendNANA
02:00 -18.3 -20.4 83 0.0 27 4   97.31   -22 LegendNANA
03:00 -17.0 -18.9 85 0.0 30 5   97.38   -21 LegendNANA
04:00 -16.5 -18.4 85 0.0 30 6   97.43   -21 LegendNANA
05:00 -16.5 -18.5 84 0.0 34 4   97.46   -20 LegendNANA
06:00 -16.2 -18.5 83 0.0 2 10   97.52   -23 LegendNANA
07:00 -16.9 -20.1 76 0.0 2 16   97.59   -26 LegendNANA
08:00 -18.2 -21.4 76 0.0 1 14   97.66   -27 LegendNANA
09:00 -19.0 -22.6 73 0.0 2 13   97.72   -27 LegendNANA
10:00 -19.6 -23.2 73 0.0 3 11   97.82   -27 LegendNANA
11:00 -20.4 -24.1 72 0.0 1 9   97.88   -27 LegendNANA
12:00 -20.3 -24.5 70 0.0 35 4   97.88   -24 LegendNANA
13:00 -20.1 -24.6 67 0.0 1 5   97.87   -24 LegendNANA
14:00 -19.5 -24.7 63 0.0 5 5   97.80   -24 LegendNANA
15:00 -19.4 -25.4 59 0.0 5 2   97.84   -21 LegendNANA
16:00 -20.8 -25.3 67 0.0 8 6   97.85   -26 LegendNANA
17:00 -21.9 -25.8 71 0.0 13 7   97.81   -28 LegendNANA
18:00 -23.3 -26.6 74 0.0 14 10   97.80   -31 LegendNANA
19:00 -23.7 -26.9 75 0.0 14 12   97.65   -33 LegendNANA
20:00 -24.1 -26.9 77 0.0 14 9   97.63   -32 LegendNANA
21:00 -23.6 -26.1 80 0.0 15 9   97.56   -31 LegendNANA
22:00 -22.5 -25.0 80 0.0 13 13   97.40   -31 LegendNANA
23:00 -20.4 -23.0 79 0.0 15 14   97.37   -29 LegendNANA

Notes on Data Quality.

Legend

  • E = Estimated
  • M = Missing
  • NA = Not Available*
  • [empty] = Indicates an unobserved value
Date modified: